Location: Sigmaringen
(48.0900°N, 9.2120°E)
Time: 14:54:11
(UTC+01:00)

ISS - Pass Details

Date: 13 January 2018
Orbit: 402 x 407 km, 51.6° (Epoch: 18 January)

Event Time Altitude Azimuth Distance (km) Brightness Sun altitude
Exits shadow 07:06:34 13° 262° (W) 1,323 -1.8 -10.3°
Maximum altitude 07:08:29 19° 221° (SW) 1,033 -2.0 -10.0°
Drops below altitude 10° 07:10:54 10° 173° (S) 1,460 -0.6 -9.6°
Sets 07:13:21 0° 155° (SSE) 2,317 0.8 -9.2°
